Погода в Бату-Пахате

Малайзия     1°50′47″N   102°55′40″E
темп.,
°C
ветер,
м/с
пор.,
м/с
влажн.,
%
обл.,
%
осадки,
мм/ч
давл.,
гПа
погр.,
м
10 августа, ср
ср1023:00+26юв348361 1.4 1009176
02:00+26юв34835 1.6 1008251
05:00+26юв238312 0.4 1008207
08:00+26юв128467 1.8 1009212
11:00+28ююв23787 0.8 1010566
14:00+30ю346219 1.3 1008905
17:00+30юв33624 0.0 1007617
20:00+27юв34775 0.0 1008227
11 августа, чт
чт1123:00+27юв35805 0.7 1010235
02:00+26вюв348196 0.8 1008216
05:00+26вюв228376 0.2 1008142
08:00+26юв238123 0.7 1009257
11:00+30ююв34675 0.0 1010915
14:00+30ю446669 0.0 1008942
17:00+30юв346523 0.0 1006584
20:00+27юв23796 0.0 1008114
12 августа, пт
пт1223:00+27вюв358342 0.2 1010176
02:00+26в238462 0.2 1008129
05:00+25в228674 0.1 100893
08:00+26всв118349 0.4 100981
11:00+30ю226477 0.1 1010647
14:00+31ю336161 0.6 1008799
17:00+31ююв335913 0.0 1006580
20:00+27юв22775 0.0 100785
13 августа, сб
сб1323:00+27вюв34806 0.1 1009164
02:00+25всв348499 0.2 1008110
05:00+25всв228644 0.0 100896
08:00+25св118561 0.2 100975
11:00+30ю01635 0.1 1010655
14:00+31ю335934 0.2 1008904
17:00+30ююв346184 0.0 1006672
20:00+27вюв348011 0.2 1008142
14 августа, вс
вс1423:00+26в3482100 0.1 1009165
02:00+25всв348929 0.2 1008134
05:00+25всв3489100 0.1 1008115
08:00+25всв238679 0.1 1010115
11:00+30ююв126122 0.0 1011688
14:00+30ююз336052 0.0 1009868
17:00+30ю226111 0.0 1007605
20:00+27юв23755 0.0 1009139